Caribou, ME

12:17 AM EDT on July 23, 2017 (GMT -0400)
Caribou Municipal

Weather History for KCAR - June, 2013

Change the Weather History Date:

Wednesday, June 5, 2013

  Actual Average Record
Temperature  
Mean Temperature 54 °F 58 °F  
Max Temperature 65 °F 69 °F 87 °F (1967)
Min Temperature 43 °F 47 °F 33 °F (2000)
Degree Days  
Heating Degree Days 11 8  
Month to date heating degree days 24 41  
Since 1 June heating degree days 24 41  
Since 1 July heating degree days 8387 9230  
Cooling Degree Days 0 1  
Month to date cooling degree days 5 2  
Year to date cooling degree days 13 7  
Since 1 June cooling degree days 5 2  
Growing Degree Days 4 (Base 50)    
Moisture  
Dew Point 32 °F    
Average Humidity 47    
Maximum Humidity 70    
Minimum Humidity 24    
Precipitation  
Precipitation 0.00 in 0.11 in 1.32 in (1977)
Month to date precipitation 1.58 0.53  
Year to date precipitation 15.60 13.95  
Snow  
Snow 0.00 in 0.00 in 0.00 in (2002)
Month to date snowfall 0.0 0.0  
Since 1 June snowfall 0.0 0.0  
Since 1 July snowfall 106.9 108.7  
Snow Depth 0.00 in    
Sea Level Pressure  
Sea Level Pressure 30.04 in    
Wind  
Wind Speed 10 mph (NW)    
Max Wind Speed 18 mph    
Max Gust Speed 25 mph    
Visibility 10 miles    
Events      
T = Trace of Precipitation, MM = Missing Value Source: NWS Daily Summary

Daily Weather History Graph

Daily Weather History Graph

Search for Another Location

Airport or City:

Trip Planner

Search our weather history database for the weather conditions in past years. The results will help you decide how hot, cold, wet, or windy it might be!

Date:

Astronomy

Jun. 05, 2013 Rise Set
Actual Time 4:39 AM EDT 8:22 PM EDT
Civil Twilight 4:00 AM EDT 9:01 PM EDT
Nautical Twilight 3:08 AM EDT 9:53 PM EDT
Astronomical Twilight 1:54 AM EDT 11:07 PM EDT
Moon 2:51 AM EDT (6/5) 5:37 PM EDT (6/5)
Length of Visible Light 17h 00m
Length of Day
15h 43m
Waning Crescent, 8% of the Moon is Illuminated
Jun 5
Waning Crescent
Jun 8
New
Jun 16
First Quarter
Jun 23
Full
Jun 30
Last Quarter

Hourly Weather History & Observations

Time (EDT) Temp. Windchill Dew Point Humidity Pressure Visibility Wind Dir Wind Speed Gust Speed Precip Events Conditions
12:54 AM 48.9 °F - 36.0 °F 61% 29.96 in 10.0 mi WNW 13.8 mph 28.8 mph N/A   Partly Cloudy
1:54 AM 46.9 °F - 36.0 °F 66% 29.97 in 10.0 mi NW 12.7 mph 19.6 mph N/A   Clear
2:54 AM 45.0 °F 39.7 °F 36.0 °F 71% 29.99 in 10.0 mi WNW 10.4 mph 18.4 mph N/A   Clear
3:54 AM 44.1 °F 39.5 °F 35.1 °F 71% 30.00 in 10.0 mi WNW 8.1 mph - N/A   Clear
4:54 AM 43.0 °F 39.5 °F 34.0 °F 71% 30.02 in 10.0 mi WNW 5.8 mph - N/A   Clear
5:54 AM 44.1 °F 40.1 °F 35.1 °F 71% 30.05 in 10.0 mi WNW 6.9 mph - N/A   Clear
6:54 AM 48.0 °F - 35.1 °F 61% 30.08 in 10.0 mi NW 10.4 mph 17.3 mph N/A   Clear
7:54 AM 50.0 °F - 34.0 °F 54% 30.09 in 10.0 mi NW 13.8 mph 23.0 mph N/A   Clear
8:54 AM 52.0 °F - 33.1 °F 49% 30.09 in 10.0 mi NW 10.4 mph 18.4 mph N/A   Scattered Clouds
9:54 AM 54.0 °F - 32.0 °F 43% 30.09 in 10.0 mi NW 12.7 mph 23.0 mph N/A   Mostly Cloudy
10:54 AM 55.9 °F - 32.0 °F 40% 30.09 in 10.0 mi NNW 15.0 mph 23.0 mph N/A   Scattered Clouds
11:54 AM 57.9 °F - 33.1 °F 39% 30.07 in 10.0 mi NNW 15.0 mph 21.9 mph N/A   Clear
12:54 PM 60.1 °F - 30.9 °F 33% 30.05 in 10.0 mi NNW 12.7 mph 19.6 mph N/A   Clear
1:54 PM 62.1 °F - 30.0 °F 30% 30.04 in 10.0 mi WNW 12.7 mph 24.2 mph N/A   Clear
2:54 PM 64.0 °F - 30.0 °F 28% 30.03 in 10.0 mi NNW 13.8 mph 21.9 mph N/A   Clear
3:54 PM 64.0 °F - 27.0 °F 25% 30.02 in 10.0 mi NNW 13.8 mph 21.9 mph N/A   Clear
4:54 PM 64.0 °F - 28.9 °F 27% 30.02 in 10.0 mi WNW 12.7 mph - N/A   Clear
5:54 PM 64.0 °F - 26.1 °F 24% 30.02 in 10.0 mi WNW 10.4 mph 20.7 mph N/A   Clear
6:54 PM 63.0 °F - 28.0 °F 27% 30.02 in 10.0 mi NW 8.1 mph 17.3 mph N/A   Clear
7:54 PM 59.0 °F - 30.9 °F 35% 30.03 in 10.0 mi NW 5.8 mph - N/A   Clear
8:54 PM 55.9 °F - 32.0 °F 40% 30.06 in 10.0 mi NW 4.6 mph - N/A   Clear
9:54 PM 53.1 °F - 33.1 °F 47% 30.09 in 10.0 mi NNW 6.9 mph - N/A   Clear
10:54 PM 50.0 °F - 32.0 °F 50% 30.09 in 10.0 mi Variable 3.5 mph - N/A   Clear
11:54 PM 46.9 °F - 34.0 °F 61% 30.11 in 10.0 mi West 4.6 mph - N/A   Clear